User: anonymous   Login
Location: Unspecified
(0.0000°N, 0.0000°E)
Time: 10:23:45
(UTC+00:00)
Language:

COSMOS 2509 - Orbit

View from above orbital plane
View from above orbital plane
View from above satellite
View from above satellite

Ground track
Ground track

The orbit data is extracted from the following two-line orbital elements,

1 40922U 15050C   19049.73234237 +.00000008 +00000-0 -12234-4 0  9997
2 40922 082.4899 304.8340 0016266 107.2502 253.0359 12.42871476154514
Epoch (UTC): 18 February 2019 17:34:34
Eccentricity: 0.0016266
inclination: 82.4899°
perigee height: 1481 km
apogee height: 1507 km
right ascension of ascending node: 304.8340°
argument of perigee: 107.2502°
revolutions per day: 12.42871476
mean anomaly at epoch: 253.0359°
orbit number at epoch: 15451

The dashed part of the orbit path shows where the satellite is in the earth's shadow,  

DLR